When you browse on this site, cookies collect data to enhance your experience and personalize the content and advertising you see.
Visit our Privacy Policy to learn more. By continuing to use the site, you agree to this use of cookies and data.
  • In Latvia
  • List of Countries
  • For 7 days
  • Water Temperature
  • Weather Map
  • Weather Widgets
  • user-avatar
    Login

    Hourly Weather Ali Bayramli

    Today, 25 August, Sunday

    Time Temperature Precipitation Wind Pressure Humidity
    00:00 +28°C° 0 mm 3 mps 757 mmHg 44%
    01:00 +28°C° 0 mm 3 mps 756 mmHg 43%
    02:00 +27°C° 0 mm 3 mps 756 mmHg 42%
    03:00 +27°C° 0 mm 3 mps 757 mmHg 43%
    04:00 +27°C° 0 mm 3 mps 757 mmHg 45%
    05:00 +27°C° 0 mm 2 mps 757 mmHg 48%
    06:00 +27°C° 0 mm 2 mps 757 mmHg 51%
    07:00 +30°C° 0 mm 2 mps 757 mmHg 44%
    08:00 +32°C° 0 mm 2 mps 757 mmHg 38%
    09:00 +36°C° 0 mm 4 mps 758 mmHg 31%
    10:00 +37°C° 0 mm 5 mps 757 mmHg 27%
    11:00 +39°C° 0 mm 6 mps 757 mmHg 22%
    12:00 +40°C° 0 mm 6 mps 757 mmHg 18%
    13:00 +39°C° 0 mm 7 mps 756 mmHg 17%
    14:00 +39°C° 0 mm 7 mps 756 mmHg 16%
    15:00 +38°C° 0 mm 7 mps 756 mmHg 16%
    16:00 +36°C° 0 mm 6 mps 757 mmHg 19%
    17:00 +34°C° 0 mm 6 mps 757 mmHg 22%
    18:00 +32°C° 0 mm 5 mps 757 mmHg 25%
    19:00 +30°C° 0 mm 4 mps 757 mmHg 33%
    20:00 +28°C° 0 mm 3 mps 757 mmHg 41%
    21:00 +26°C° 0 mm 2 mps 758 mmHg 49%
    22:00 +26°C° 0 mm 3 mps 758 mmHg 48%
    23:00 +26°C° 0 mm 3 mps 758 mmHg 48%

    Tomorrow, 26 August, Monday

    Time Temperature Precipitation Wind Pressure Humidity
    00:00 +25°C° 0 mm 3 mps 758 mmHg 47%
    01:00 +25°C° 0 mm 3 mps 758 mmHg 45%
    02:00 +24°C° 0 mm 2 mps 758 mmHg 44%
    03:00 +24°C° 0 mm 2 mps 758 mmHg 42%
    04:00 +24°C° 0 mm 2 mps 758 mmHg 42%
    05:00 +24°C° 0 mm 2 mps 758 mmHg 41%
    06:00 +25°C° 0 mm 2 mps 759 mmHg 40%
    07:00 +28°C° 0 mm 2 mps 759 mmHg 33%
    08:00 +30°C° 0 mm 3 mps 759 mmHg 25%
    09:00 +34°C° 0 mm 3 mps 759 mmHg 17%
    10:00 +36°C° 0 mm 4 mps 759 mmHg 16%
    11:00 +37°C° 0 mm 5 mps 759 mmHg 14%
    12:00 +40°C° 0 mm 5 mps 759 mmHg 12%
    13:00 +40°C° 0 mm 7 mps 759 mmHg 14%
    14:00 +39°C° 0 mm 8 mps 759 mmHg 16%
    15:00 +39°C° 0 mm 10 mps 758 mmHg 18%
    16:00 +37°C° 0 mm 11 mps 759 mmHg 22%
    17:00 +34°C° 0 mm 12 mps 759 mmHg 27%
    18:00 +33°C° 0 mm 13 mps 759 mmHg 32%
    19:00 +32°C° 0 mm 12 mps 759 mmHg 31%
    20:00 +31°C° 0 mm 12 mps 760 mmHg 30%
    21:00 +29°C° 0 mm 12 mps 760 mmHg 30%
    22:00 +29°C° 0 mm 10 mps 760 mmHg 33%
    23:00 +28°C° 0 mm 9 mps 760 mmHg 35%

    Day after tomorrow, 27 August, Tuesday

    Time Temperature Precipitation Wind Pressure Humidity
    00:00 +27°C° 0 mm 7 mps 761 mmHg 38%
    01:00 +26°C° 0 mm 5 mps 760 mmHg 44%
    02:00 +23°C° 0 mm 4 mps 760 mmHg 51%
    03:00 +23°C° 0 mm 2 mps 760 mmHg 57%
    04:00 +23°C° 0 mm 1 mps 760 mmHg 57%
    05:00 +24°C° 0 mm 1 mps 760 mmHg 57%
    06:00 +24°C° 0 mm 1 mps 760 mmHg 57%
    07:00 +26°C° 0 mm 2 mps 760 mmHg 50%
    08:00 +28°C° 0 mm 2 mps 760 mmHg 43%
    09:00 +30°C° 0 mm 3 mps 760 mmHg 36%
    10:00 +33°C° 0 mm 4 mps 759 mmHg 34%
    11:00 +34°C° 0 mm 5 mps 759 mmHg 32%
    12:00 +35°C° 0 mm 6 mps 759 mmHg 30%
    13:00 +35°C° 0 mm 6 mps 758 mmHg 31%
    14:00 +35°C° 0 mm 6 mps 757 mmHg 31%
    15:00 +35°C° 0 mm 6 mps 757 mmHg 31%
    16:00 +34°C° 0 mm 6 mps 757 mmHg 34%
    17:00 +32°C° 0 mm 6 mps 757 mmHg 37%
    18:00 +30°C° 0 mm 5 mps 757 mmHg 40%
    19:00 +28°C° 0 mm 5 mps 757 mmHg 46%
    20:00 +27°C° 0 mm 4 mps 757 mmHg 52%
    21:00 +25°C° 0 mm 3 mps 757 mmHg 58%
    22:00 +25°C° 0 mm 3 mps 757 mmHg 57%
    23:00 +25°C° 0 mm 3 mps 757 mmHg 55%

    28 August, Wednesday

    Time Temperature Precipitation Wind Pressure Humidity
    00:00 +25°C° 0 mm 3 mps 757 mmHg 54%
    01:00 +24°C° 0 mm 3 mps 757 mmHg 54%
    02:00 +22°C° 0 mm 3 mps 757 mmHg 54%
    03:00 +22°C° 0 mm 3 mps 757 mmHg 54%
    04:00 +23°C° 0 mm 2 mps 757 mmHg 55%
    05:00 +23°C° 0 mm 2 mps 757 mmHg 56%
    06:00 +23°C° 0 mm 2 mps 757 mmHg 57%
    07:00 +26°C° 0 mm 2 mps 757 mmHg 50%
    08:00 +28°C° 0 mm 2 mps 758 mmHg 42%
    09:00 +30°C° 0 mm 3 mps 758 mmHg 35%
    10:00 +32°C° 0 mm 2 mps 758 mmHg 32%
    11:00 +34°C° 0 mm 2 mps 758 mmHg 29%
    12:00 +36°C° 0 mm 2 mps 757 mmHg 25%
    13:00 +36°C° 0 mm 4 mps 757 mmHg 27%
    14:00 +36°C° 0 mm 5 mps 757 mmHg 28%
    15:00 +36°C° 0 mm 7 mps 757 mmHg 30%
    16:00 +34°C° 0 mm 7 mps 757 mmHg 34%
    17:00 +32°C° 0 mm 7 mps 757 mmHg 38%
    18:00 +29°C° 0 mm 7 mps 757 mmHg 42%
    19:00 +28°C° 0 mm 6 mps 757 mmHg 48%
    20:00 +27°C° 0 mm 5 mps 758 mmHg 53%
    21:00 +26°C° 0 mm 3 mps 758 mmHg 59%
    22:00 +25°C° 0 mm 3 mps 758 mmHg 61%
    23:00 +25°C° 0 mm 2 mps 758 mmHg 63%

    29 August, Thursday

    Time Temperature Precipitation Wind Pressure Humidity
    00:00 +24°C° 0 mm 2 mps 758 mmHg 65%
    01:00 +23°C° 0 mm 1 mps 758 mmHg 66%
    02:00 +23°C° 0 mm 1 mps 758 mmHg 68%
    03:00 +20°C° 0 mm 0 mps 758 mmHg 69%
    04:00 +23°C° 0 mm 1 mps 758 mmHg 65%
    05:00 +24°C° 0 mm 1 mps 758 mmHg 61%
    06:00 +25°C° 0 mm 1 mps 758 mmHg 57%
    07:00 +27°C° 0 mm 1 mps 758 mmHg 51%
    08:00 +29°C° 0 mm 2 mps 758 mmHg 44%
    09:00 +31°C° 0 mm 2 mps 758 mmHg 38%
    10:00 +33°C° 0 mm 3 mps 758 mmHg 34%
    11:00 +34°C° 0 mm 4 mps 758 mmHg 30%
    12:00 +36°C° 0 mm 5 mps 758 mmHg 25%
    13:00 +35°C° 0 mm 6 mps 757 mmHg 27%
    14:00 +35°C° 0 mm 7 mps 757 mmHg 28%
    15:00 +34°C° 0 mm 7 mps 757 mmHg 29%
    16:00 +33°C° 0 mm 7 mps 757 mmHg 35%
    17:00 +30°C° 0 mm 7 mps 757 mmHg 42%
    18:00 +28°C° 0 mm 7 mps 757 mmHg 48%
    19:00 +27°C° 0 mm 8 mps 758 mmHg 54%
    20:00 +26°C° 0 mm 8 mps 758 mmHg 61%
    21:00 +24°C° 0 mm 8 mps 759 mmHg 67%
    22:00 +23°C° 0 mm 8 mps 759 mmHg 68%
    23:00 +23°C° 0 mm 8 mps 759 mmHg 69%

    30 August, Friday

    Time Temperature Precipitation Wind Pressure Humidity
    00:00 +22°C° 0 mm 8 mps 759 mmHg 70%
    01:00 +22°C° 0.1 mm 8 mps 759 mmHg 70%
    02:00 +22°C° 0.1 mm 8 mps 758 mmHg 70%
    03:00 +22°C° 0.1 mm 8 mps 758 mmHg 70%
    04:00 +22°C° 0.1 mm 7 mps 758 mmHg 69%
    05:00 +22°C° 0.1 mm 7 mps 758 mmHg 68%
    06:00 +22°C° 0.1 mm 7 mps 759 mmHg 67%
    07:00 +23°C° 0 mm 7 mps 759 mmHg 65%
    08:00 +23°C° 0 mm 6 mps 759 mmHg 63%
    09:00 +23°C° 0 mm 6 mps 759 mmHg 61%
    10:00 +24°C° 0 mm 6 mps 758 mmHg 58%
    11:00 +26°C° 0 mm 6 mps 758 mmHg 55%
    12:00 +26°C° 0 mm 6 mps 758 mmHg 53%
    13:00 +27°C° 0 mm 6 mps 758 mmHg 51%
    14:00 +28°C° 0 mm 6 mps 758 mmHg 49%
    15:00 +28°C° 0 mm 6 mps 758 mmHg 47%
    16:00 +27°C° 0 mm 7 mps 758 mmHg 52%
    17:00 +24°C° 0 mm 8 mps 758 mmHg 57%
    18:00 +23°C° 0 mm 9 mps 758 mmHg 62%
    19:00 +22°C° 0.1 mm 9 mps 758 mmHg 62%
    20:00 +22°C° 0.1 mm 8 mps 758 mmHg 62%
    21:00 +21°C° 0.1 mm 8 mps 759 mmHg 63%
    22:00 +22°C° 0.1 mm 8 mps 759 mmHg 62%
    23:00 +22°C° 0.1 mm 8 mps 759 mmHg 61%
    Show more